AFL154 UUEE-ULLI

Flight info

Callsign AFL154
Flight time 1h 9m
Altitude 30000
Route TOKNU L4 NUDKO T561 ODATI T875 GENPA
Aircraft A333/M-SDFGRYZ/S

Departure

Time 2026-05-06 11:06
Airport Sheremetyevo International Airport (UUEE)

Arrival

Time 2026-05-06 12:16
Airport Pulkovo Airport (ULLI)
Time Latitude Longitude Altitude Speed Heading
2026-05-06 10:51 55.97845 37.41244 627 ft 0 kts 255°
2026-05-06 11:00 55.97882 37.41374 627 ft 0 kts 162°
2026-05-06 11:00 55.97881 37.41374 627 ft 0 kts 162°
2026-05-06 11:01 55.97866 37.41383 627 ft 5 kts 162°
2026-05-06 11:01 55.97808 37.41415 627 ft 11 kts 162°
2026-05-06 11:01 55.97712 37.41470 627 ft 16 kts 149°
2026-05-06 11:01 55.97625 37.41602 625 ft 17 kts 142°
2026-05-06 11:02 55.97623 37.41804 623 ft 18 kts 73°
2026-05-06 11:02 55.97658 37.42045 619 ft 21 kts 74°
2026-05-06 11:02 55.97700 37.42321 617 ft 23 kts 75°
2026-05-06 11:02 55.97742 37.42622 615 ft 25 kts 74°
2026-05-06 11:03 55.97792 37.42948 613 ft 27 kts 75°
2026-05-06 11:03 55.97841 37.43279 616 ft 27 kts 72°
2026-05-06 11:03 55.97890 37.43599 618 ft 27 kts 75°
2026-05-06 11:03 55.97934 37.43899 622 ft 16 kts 75°
2026-05-06 11:04 55.97932 37.44005 622 ft 8 kts 125°
2026-05-06 11:04 55.97871 37.44053 621 ft 10 kts 164°
2026-05-06 11:04 55.97793 37.44054 619 ft 12 kts 210°
2026-05-06 11:04 55.97777 37.44008 619 ft 0 kts 249°
2026-05-06 11:05 55.97775 37.43999 619 ft 4 kts 250°
2026-05-06 11:05 55.97707 37.43557 615 ft 79 kts 255°
2026-05-06 11:05 55.97496 37.42134 619 ft 155 kts 257°
2026-05-06 11:06 55.97176 37.40089 1154 ft 179 kts 255°
2026-05-06 11:06 55.96775 37.37789 1719 ft 219 kts 252°
2026-05-06 11:06 55.95916 37.35490 2401 ft 233 kts 221°
2026-05-06 11:06 55.94623 37.33762 3093 ft 237 kts 228°
2026-05-06 11:07 55.93604 37.31453 3786 ft 241 kts 238°
2026-05-06 11:07 55.92689 37.28929 4480 ft 247 kts 240°
2026-05-06 11:07 55.91803 37.26291 5167 ft 254 kts 241°
2026-05-06 11:07 55.90903 37.23549 5772 ft 264 kts 242°
2026-05-06 11:08 55.89977 37.20705 6353 ft 266 kts 242°
2026-05-06 11:08 55.89074 37.17878 6909 ft 263 kts 245°
2026-05-06 11:08 55.88343 37.14936 7482 ft 260 kts 248°
2026-05-06 11:08 55.87626 37.11987 8085 ft 258 kts 248°
2026-05-06 11:09 55.86924 37.09091 8618 ft 260 kts 248°
2026-05-06 11:09 55.86447 37.06022 9142 ft 258 kts 269°
2026-05-06 11:09 55.86771 37.02933 9692 ft 259 kts 285°
2026-05-06 11:09 55.87287 36.99844 10216 ft 262 kts 284°
2026-05-06 11:10 55.87802 36.96713 10711 ft 264 kts 284°
2026-05-06 11:10 55.88313 36.93594 11193 ft 267 kts 284°
2026-05-06 11:10 55.88834 36.90412 11699 ft 270 kts 284°
2026-05-06 11:10 55.89353 36.87230 12199 ft 271 kts 284°
2026-05-06 11:11 55.89881 36.83986 12695 ft 275 kts 284°
2026-05-06 11:11 55.90410 36.80738 13194 ft 277 kts 284°
2026-05-06 11:11 55.90954 36.77418 13686 ft 280 kts 286°
2026-05-06 11:11 55.91929 36.74443 14165 ft 289 kts 310°
2026-05-06 11:12 55.93388 36.71943 14696 ft 291 kts 311°
2026-05-06 11:12 55.94820 36.69413 15240 ft 293 kts 311°
2026-05-06 11:12 55.96265 36.66856 15776 ft 295 kts 311°
2026-05-06 11:12 55.97729 36.64259 16235 ft 298 kts 311°
2026-05-06 11:13 55.99191 36.61663 16684 ft 300 kts 311°
2026-05-06 11:13 56.00696 36.58986 17155 ft 309 kts 311°
2026-05-06 11:13 56.02318 36.56386 17611 ft 322 kts 323°
2026-05-06 11:13 56.04420 36.54863 18078 ft 341 kts 344°
2026-05-06 11:14 56.06847 36.54815 18565 ft 359 kts
2026-05-06 11:14 56.09267 36.56157 19045 ft 370 kts 14°
2026-05-06 11:14 56.11723 36.57408 19520 ft 375 kts 10°
2026-05-06 11:14 56.14286 36.58208 19980 ft 373 kts 356°
2026-05-06 11:15 56.16811 36.57482 20450 ft 367 kts 336°
2026-05-06 11:15 56.19107 36.55613 20925 ft 365 kts 323°
2026-05-06 11:15 56.21080 36.52803 21404 ft 364 kts 313°
2026-05-06 11:15 56.22854 36.49545 21880 ft 367 kts 309°
2026-05-06 11:16 56.24537 36.46134 22353 ft 371 kts 308°
2026-05-06 11:16 56.26204 36.42583 22829 ft 374 kts 307°
2026-05-06 11:16 56.27862 36.38972 23303 ft 378 kts 307°
2026-05-06 11:16 56.29524 36.35312 23778 ft 381 kts 306°
2026-05-06 11:17 56.31203 36.31591 24272 ft 384 kts 306°
2026-05-06 11:17 56.32886 36.27851 24777 ft 387 kts 306°
2026-05-06 11:17 56.34552 36.24142 25269 ft 389 kts 306°
2026-05-06 11:17 56.36255 36.20339 25755 ft 391 kts 306°
2026-05-06 11:18 56.37969 36.16508 26241 ft 393 kts 306°
2026-05-06 11:18 56.39666 36.12710 26722 ft 395 kts 306°
2026-05-06 11:18 56.41402 36.08819 27220 ft 397 kts 306°
2026-05-06 11:18 56.43133 36.04932 27704 ft 399 kts 306°
2026-05-06 11:19 56.44843 36.01081 28186 ft 400 kts 306°
2026-05-06 11:19 56.46591 35.97142 28678 ft 402 kts 306°
2026-05-06 11:19 56.48341 35.93195 29170 ft 403 kts 306°
2026-05-06 11:19 56.50071 35.89283 29654 ft 404 kts 306°
2026-05-06 11:20 56.51843 35.85270 29946 ft 410 kts 306°
2026-05-06 11:20 56.53635 35.81204 29858 ft 424 kts 306°
2026-05-06 11:20 56.55502 35.76963 29910 ft 433 kts 306°
2026-05-06 11:21 56.59300 35.68308 29854 ft 449 kts 306°
2026-05-06 11:21 56.63194 35.59405 29895 ft 456 kts 306°
2026-05-06 11:22 56.67079 35.50497 29953 ft 447 kts 306°
2026-05-06 11:22 56.70923 35.41641 29898 ft 444 kts 306°
2026-05-06 11:23 56.74733 35.32831 29859 ft 447 kts 305°
2026-05-06 11:23 56.78552 35.23965 29925 ft 447 kts 305°
2026-05-06 11:24 56.82348 35.15127 29979 ft 443 kts 305°
2026-05-06 11:24 56.86131 35.06283 29909 ft 441 kts 305°
2026-05-06 11:25 56.89895 34.97454 29870 ft 445 kts 305°
2026-05-06 11:25 56.92074 34.93402 29924 ft 449 kts 319°
2026-05-06 11:25 56.94675 34.90301 29967 ft 454 kts 323°
2026-05-06 11:26 56.99972 34.84012 29947 ft 453 kts 322°
2026-05-06 11:26 57.05221 34.77727 29877 ft 452 kts 322°
2026-05-06 11:27 57.10462 34.71421 29913 ft 452 kts 322°
2026-05-06 11:27 57.15686 34.65115 29978 ft 450 kts 322°
2026-05-06 11:28 57.20897 34.58807 29920 ft 447 kts 322°
2026-05-06 11:28 57.26097 34.52484 29871 ft 452 kts 322°
2026-05-06 11:29 57.31278 34.46166 29932 ft 452 kts 322°
2026-05-06 11:29 57.36489 34.39790 29973 ft 448 kts 322°
2026-05-06 11:30 57.41693 34.33402 29907 ft 448 kts 321°
2026-05-06 11:30 57.46873 34.27016 29874 ft 450 kts 321°
2026-05-06 11:31 57.52039 34.20629 29957 ft 450 kts 321°
2026-05-06 11:31 57.57208 34.14218 29976 ft 447 kts 320°
2026-05-06 11:32 57.62382 34.07776 29889 ft 446 kts 320°
2026-05-06 11:32 57.67508 34.01371 29885 ft 448 kts 320°
2026-05-06 11:33 57.72639 33.94938 29970 ft 446 kts 320°
2026-05-06 11:33 57.77774 33.88476 29959 ft 445 kts 320°
2026-05-06 11:34 57.82909 33.81996 29873 ft 445 kts 320°
2026-05-06 11:34 57.85480 33.78742 29988 ft 444 kts 320°
2026-05-06 11:34 57.87962 33.75406 29895 ft 444 kts 316°
2026-05-06 11:35 57.92718 33.68185 29980 ft 441 kts 315°
2026-05-06 11:35 57.95129 33.64523 29863 ft 443 kts 315°
2026-05-06 11:35 57.97497 33.60921 29959 ft 439 kts 315°
2026-05-06 11:36 58.02263 33.53649 29877 ft 442 kts 315°
2026-05-06 11:36 58.04615 33.50053 29985 ft 438 kts 315°
2026-05-06 11:36 58.06976 33.46433 29898 ft 442 kts 315°
2026-05-06 11:37 58.11711 33.39159 29982 ft 439 kts 315°
2026-05-06 11:37 58.14088 33.35498 29863 ft 441 kts 315°
2026-05-06 11:37 58.16445 33.31860 29971 ft 437 kts 314°
2026-05-06 11:38 58.21169 33.24558 29880 ft 440 kts 314°
2026-05-06 11:38 58.23507 33.20933 30004 ft 439 kts 314°
2026-05-06 11:38 58.25887 33.17234 29900 ft 441 kts 314°
2026-05-06 11:39 58.30568 33.09950 29988 ft 440 kts 314°
2026-05-06 11:39 58.32944 33.06242 29877 ft 440 kts 314°
2026-05-06 11:39 58.35275 33.02597 29969 ft 438 kts 314°
2026-05-06 11:40 58.39973 32.95229 29886 ft 438 kts 314°
2026-05-06 11:40 58.42329 32.91530 29995 ft 438 kts 314°
2026-05-06 11:40 58.44661 32.87852 29904 ft 439 kts 314°
2026-05-06 11:41 58.49318 32.80504 29992 ft 437 kts 314°
2026-05-06 11:41 58.51683 32.76757 29869 ft 438 kts 314°
2026-05-06 11:41 58.53993 32.73093 29979 ft 435 kts 314°
2026-05-06 11:42 58.58647 32.65692 29883 ft 437 kts 314°
2026-05-06 11:42 58.60982 32.61971 30007 ft 435 kts 314°
2026-05-06 11:42 58.63296 32.58274 29895 ft 439 kts 314°
2026-05-06 11:43 58.67940 32.50834 29601 ft 436 kts 314°
2026-05-06 11:43 58.70246 32.47135 29276 ft 433 kts 313°
2026-05-06 11:43 58.72558 32.43412 28997 ft 431 kts 313°
2026-05-06 11:44 58.77099 32.36088 28471 ft 426 kts 313°
2026-05-06 11:44 58.79378 32.32400 28192 ft 423 kts 312°
2026-05-06 11:44 58.81602 32.28798 27938 ft 421 kts 312°
2026-05-06 11:44 58.83837 32.25170 27678 ft 421 kts 312°
2026-05-06 11:45 58.86058 32.21557 27416 ft 419 kts 312°
2026-05-06 11:45 58.88273 32.17949 27154 ft 418 kts 312°
2026-05-06 11:45 58.90471 32.14365 26890 ft 416 kts 312°
2026-05-06 11:45 58.92691 32.10731 26620 ft 416 kts 312°
2026-05-06 11:46 58.94878 32.07151 26360 ft 414 kts 312°
2026-05-06 11:46 58.97052 32.03585 26097 ft 410 kts 312°
2026-05-06 11:46 58.99231 32.00005 25827 ft 409 kts 311°
2026-05-06 11:46 59.01398 31.96436 25560 ft 408 kts 311°
2026-05-06 11:47 59.03534 31.92941 25291 ft 405 kts 311°
2026-05-06 11:47 59.05684 31.89374 25008 ft 406 kts 311°
2026-05-06 11:47 59.07832 31.85809 24595 ft 409 kts 311°
2026-05-06 11:47 59.09983 31.82205 24186 ft 408 kts 309°
2026-05-06 11:48 59.11704 31.78058 23818 ft 394 kts 297°
2026-05-06 11:48 59.13229 31.73627 23493 ft 392 kts 297°
2026-05-06 11:48 59.14721 31.69291 23178 ft 391 kts 297°
2026-05-06 11:48 59.16228 31.64911 22848 ft 390 kts 297°
2026-05-06 11:49 59.17726 31.60542 22377 ft 388 kts 298°
2026-05-06 11:49 59.19222 31.56180 21811 ft 386 kts 298°
2026-05-06 11:49 59.20699 31.51866 21299 ft 382 kts 298°
2026-05-06 11:49 59.22161 31.47580 20795 ft 380 kts 298°
2026-05-06 11:50 59.23613 31.43319 20261 ft 379 kts 298°
2026-05-06 11:50 59.25041 31.39115 19698 ft 375 kts 298°
2026-05-06 11:50 59.26467 31.34921 19154 ft 370 kts 297°
2026-05-06 11:50 59.27880 31.30746 18660 ft 370 kts 297°
2026-05-06 11:51 59.29293 31.26574 18167 ft 367 kts 297°
2026-05-06 11:51 59.30691 31.22434 17793 ft 365 kts 297°
2026-05-06 11:51 59.32086 31.18291 17444 ft 365 kts 297°
2026-05-06 11:51 59.33464 31.14195 17088 ft 364 kts 297°
2026-05-06 11:52 59.34848 31.10077 16707 ft 362 kts 298°
2026-05-06 11:52 59.36229 31.05959 16348 ft 360 kts 298°
2026-05-06 11:52 59.37597 31.01875 15982 ft 360 kts 297°
2026-05-06 11:52 59.38946 30.97837 15680 ft 358 kts 298°
2026-05-06 11:53 59.40299 30.93776 15360 ft 356 kts 298°
2026-05-06 11:53 59.41649 30.89720 14897 ft 355 kts 298°
2026-05-06 11:53 59.42994 30.85672 14427 ft 354 kts 298°
2026-05-06 11:53 59.44330 30.81642 14061 ft 352 kts 298°
2026-05-06 11:54 59.45641 30.77684 13718 ft 350 kts 298°
2026-05-06 11:54 59.46970 30.73647 13362 ft 350 kts 298°
2026-05-06 11:54 59.48279 30.69685 12996 ft 349 kts 299°
2026-05-06 11:54 59.49602 30.65672 12635 ft 349 kts 300°
2026-05-06 11:55 59.50915 30.61682 12266 ft 347 kts 300°
2026-05-06 11:55 59.52209 30.57745 11881 ft 346 kts 300°
2026-05-06 11:55 59.53510 30.53772 11491 ft 344 kts 300°
2026-05-06 11:55 59.54797 30.49851 11116 ft 343 kts 301°
2026-05-06 11:56 59.56092 30.46022 10328 ft 329 kts 302°
2026-05-06 11:56 59.57338 30.42328 9681 ft 318 kts 302°
2026-05-06 11:56 59.58532 30.38784 9006 ft 310 kts 303°
2026-05-06 11:56 59.59693 30.35327 8249 ft 298 kts 303°
2026-05-06 11:57 59.60799 30.32030 7522 ft 288 kts 303°
2026-05-06 11:57 59.61888 30.28778 6738 ft 282 kts 303°
2026-05-06 11:57 59.62951 30.25606 5896 ft 281 kts 303°
2026-05-06 11:57 59.64024 30.22400 4973 ft 281 kts 303°
2026-05-06 11:58 59.65065 30.19282 4418 ft 269 kts 303°
2026-05-06 11:58 59.65429 30.18189 4251 ft 264 kts 303°
2026-05-06 11:58 59.66354 30.15413 3779 ft 255 kts 303°
2026-05-06 11:58 59.67309 30.12546 3469 ft 245 kts 303°
2026-05-06 11:59 59.68230 30.09773 3247 ft 244 kts 303°
2026-05-06 11:59 59.69170 30.06943 2955 ft 246 kts 303°
2026-05-06 11:59 59.70100 30.04140 2757 ft 243 kts 303°
2026-05-06 11:59 59.71007 30.01401 2805 ft 231 kts 303°
2026-05-06 12:00 59.71873 29.98783 2772 ft 227 kts 303°
2026-05-06 12:00 59.72733 29.96181 2804 ft 231 kts 303°
2026-05-06 12:00 59.73609 29.93525 3166 ft 234 kts 303°
2026-05-06 12:00 59.74515 29.90778 2951 ft 241 kts 303°
2026-05-06 12:01 59.75399 29.88095 3227 ft 224 kts 303°
2026-05-06 12:01 59.76250 29.85509 3176 ft 225 kts 303°
2026-05-06 12:01 59.77097 29.82940 3181 ft 217 kts 304°
2026-05-06 12:01 59.78213 29.81014 3178 ft 213 kts 336°
2026-05-06 12:02 59.79651 29.80726 3200 ft 216 kts 10°
2026-05-06 12:02 59.80963 29.82174 3207 ft 223 kts 44°
2026-05-06 12:02 59.81794 29.84790 3215 ft 226 kts 59°
2026-05-06 12:02 59.82559 29.87531 3185 ft 224 kts 58°
2026-05-06 12:03 59.83295 29.90178 3157 ft 217 kts 58°
2026-05-06 12:03 59.83931 29.92884 2970 ft 220 kts 76°
2026-05-06 12:03 59.83842 29.95924 2832 ft 221 kts 107°
2026-05-06 12:03 59.83386 29.98821 2699 ft 221 kts 105°
2026-05-06 12:04 59.82958 30.01703 2571 ft 217 kts 105°
2026-05-06 12:04 59.82545 30.04566 2438 ft 216 kts 104°
2026-05-06 12:04 59.82104 30.07521 2090 ft 230 kts 106°
2026-05-06 12:04 59.81626 30.10576 1739 ft 236 kts 105°
2026-05-06 12:05 59.81184 30.13619 1232 ft 225 kts 104°
2026-05-06 12:05 59.80768 30.16509 730 ft 215 kts 104°
2026-05-06 12:05 59.80363 30.19258 375 ft 203 kts 104°
2026-05-06 12:05 59.79979 30.21890 118 ft 191 kts 103°
2026-05-06 12:06 59.79634 30.24240 126 ft 164 kts 104°
2026-05-06 12:06 59.79308 30.26433 571 ft 167 kts 104°
2026-05-06 12:06 59.78847 30.28487 928 ft 170 kts 132°
2026-05-06 12:06 59.77871 30.29872 1296 ft 175 kts 149°
2026-05-06 12:07 59.76846 30.31276 1651 ft 187 kts 145°
2026-05-06 12:07 59.75763 30.32867 2084 ft 203 kts 144°
2026-05-06 12:07 59.74611 30.34603 2573 ft 218 kts 143°
2026-05-06 12:07 59.73352 30.36529 3058 ft 237 kts 143°
2026-05-06 12:08 59.72039 30.38552 3316 ft 243 kts 143°
2026-05-06 12:08 59.70626 30.40366 3260 ft 236 kts 155°
2026-05-06 12:08 59.69178 30.41734 3299 ft 232 kts 156°
2026-05-06 12:08 59.67719 30.43113 3290 ft 231 kts 156°
2026-05-06 12:09 59.66291 30.44504 3287 ft 232 kts 149°
2026-05-06 12:09 59.65107 30.46631 3298 ft 225 kts 133°
2026-05-06 12:09 59.64305 30.49212 3279 ft 216 kts 108°
2026-05-06 12:09 59.63873 30.52049 3307 ft 220 kts 96°
2026-05-06 12:10 59.64027 30.55024 3292 ft 215 kts 62°
2026-05-06 12:10 59.64967 30.57219 3325 ft 210 kts 32°
2026-05-06 12:10 59.66161 30.58849 3301 ft 210 kts 30°
2026-05-06 12:10 59.67373 30.60485 3289 ft 209 kts 28°
2026-05-06 12:11 59.68713 30.61298 3294 ft 203 kts 353°
2026-05-06 12:11 59.70005 30.60419 3325 ft 196 kts 325°
2026-05-06 12:11 59.71121 30.58917 3296 ft 188 kts 323°
2026-05-06 12:11 59.72152 30.57511 3368 ft 169 kts 323°
2026-05-06 12:12 59.73107 30.56184 3328 ft 167 kts 322°
2026-05-06 12:12 59.73956 30.54667 3220 ft 161 kts 309°
2026-05-06 12:12 59.74613 30.52832 2974 ft 163 kts 301°
2026-05-06 12:12 59.75156 30.50908 2714 ft 159 kts 296°
2026-05-06 12:13 59.75629 30.48951 2457 ft 156 kts 295°
2026-05-06 12:13 59.76072 30.47005 2216 ft 153 kts 293°
2026-05-06 12:13 59.76463 30.45056 1922 ft 156 kts 290°
2026-05-06 12:13 59.76806 30.43007 1626 ft 157 kts 286°
2026-05-06 12:14 59.77123 30.40929 1472 ft 155 kts 288°
2026-05-06 12:14 59.77424 30.38914 1260 ft 150 kts 289°
2026-05-06 12:14 59.77725 30.36976 1043 ft 146 kts 288°
2026-05-06 12:14 59.78021 30.35047 851 ft 150 kts 287°
2026-05-06 12:15 59.78316 30.32992 654 ft 158 kts 288°
2026-05-06 12:15 59.78638 30.30884 403 ft 163 kts 288°
2026-05-06 12:15 59.78956 30.28774 167 ft 156 kts 288°
2026-05-06 12:15 59.79250 30.26806 94 ft 133 kts 288°
2026-05-06 12:16 59.79402 30.25797 91 ft 38 kts 286°
2026-05-06 12:16 59.79455 30.25444 91 ft 23 kts 284°
2026-05-06 12:16 59.79502 30.25141 91 ft 23 kts 286°
2026-05-06 12:16 59.79555 30.24781 90 ft 31 kts 286°
2026-05-06 12:17 59.79619 30.24345 87 ft 33 kts 285°
2026-05-06 12:17 59.79695 30.23828 87 ft 48 kts 285°
2026-05-06 12:17 59.79826 30.23213 84 ft 49 kts 311°
2026-05-06 12:17 59.79972 30.23092 84 ft 23 kts 78°
2026-05-06 12:18 59.79935 30.23426 85 ft 27 kts 106°
2026-05-06 12:18 59.79876 30.23827 88 ft 34 kts 105°
2026-05-06 12:18 59.79802 30.24326 87 ft 40 kts 106°
2026-05-06 12:18 59.79722 30.24866 91 ft 40 kts 106°
2026-05-06 12:19 59.79642 30.25399 94 ft 41 kts 105°
2026-05-06 12:19 59.79565 30.25915 92 ft 27 kts 106°
2026-05-06 12:19 59.79512 30.26274 91 ft 20 kts 93°
2026-05-06 12:19 59.79589 30.26394 91 ft 13 kts 21°
2026-05-06 12:20 59.79686 30.26453 91 ft 15 kts 15°
2026-05-06 12:20 59.79792 30.26517 91 ft 16 kts 17°
2026-05-06 12:20 59.79908 30.26582 91 ft 18 kts 15°
2026-05-06 12:20 59.80034 30.26649 90 ft 19 kts 14°
2026-05-06 12:21 59.80143 30.26719 88 ft 13 kts 15°
2026-05-06 12:21 59.80177 30.26798 87 ft 7 kts 86°
2026-05-06 12:21 59.80175 30.26876 88 ft 1 kts 93°
2026-05-06 12:21 59.80175 30.26898 88 ft 0 kts 92°